FW5215 Weather Reports


Display with metric or nautical units.
time (UTC)temp
F
wind
direction
speed
MPH
gust
MPH
rain 1hr
in
rain 24hr
in
rain mn
in
humidity
%
barometer
mb
20260502234513 61 202 1.0 5.0 0.00 0.00 0.00 44 1007.9
20260502233014 61 196 1.0 5.0 0.00 0.00 0.00 44 1008.1
20260502231514 62 192 2.0 5.0 0.00 0.00 0.00 45 1008.3
20260502230012 62 265 3.0 8.0 0.00 0.00 0.00 41 1008.5
20260502224510 63 248 3.0 6.0 0.00 0.00 0.00 41 1008.7
20260502223006 64 271 3.0 9.0 0.00 0.00 0.00 41 1008.8
20260502221511 63 151 2.0 9.0 0.00 0.00 0.00 40 1009.1
20260502220013 62 219 4.0 9.0 0.00 0.00 0.00 41 1009.2
20260502214505 62 177 4.0 8.0 0.00 0.00 0.00 40 1009.4
20260502213105 61 271 4.0 7.0 0.00 0.00 0.00 45 1009.7
20260502211520 62 254 3.0 7.0 0.00 0.00 0.00 41 1009.9
20260502210011 61 203 4.0 10.0 0.00 0.00 0.00 42 1010.1
20260502204509 62 214 4.0 8.0 0.00 0.00 0.00 41 1010.3
20260502203007 61 283 4.0 8.0 0.00 0.00 0.00 43 1010.5
20260502201505 61 269 3.0 9.0 0.00 0.00 0.00 40 1010.8
20260502200105 62 259 3.0 7.0 0.00 0.00 0.00 42 1011.1
20260502194514 61 236 3.0 10.0 0.00 0.00 0.00 41 1011.3
20260502193014 61 249 3.0 7.0 0.00 0.00 0.00 41 1011.5
20260502191508 60 248 3.0 8.0 0.00 0.00 0.00 42 1011.9
20260502190011 60 217 2.0 7.0 0.00 0.00 0.00 41 1012.3
20260502184512 59 286 2.0 9.0 0.00 0.00 0.00 40 1012.5
20260502183007 58 278 5.0 9.0 0.00 0.00 0.00 39 1012.7
20260502181505 61 247 4.0 10.0 0.00 0.00 0.00 38 1012.8
20260502163008 59 253 3.0 8.0 0.00 0.00 0.00 36 1014.6
20260502161505 59 267 3.0 8.0 0.00 0.00 0.00 39 1014.8
20260502160108 58 242 2.0 5.0 0.00 0.00 0.00 39 1015.0
20260502123006 36 278 0.0 2.0 0.00 0.00 0.00 77 1016.3
20260502121508 35 242 0.0 2.0 0.00 0.00 0.00 81 1016.3
20260502120115 33 247 0.0 1.0 0.00 0.00 0.00 82 1016.3
20260502114510 31 247 0.0 2.0 0.00 0.00 0.00 84 1016.5
20260502113006 29 186 0.0 2.0 0.00 0.00 0.00 82 1016.3
20260502111604 29 180 0.0 0.0 0.00 0.00 0.00 80 1016.2
20260502110013 30 180 0.0 2.0 0.00 0.00 0.00 80 1016.2
20260502104530 30 184 0.0 1.0 0.00 0.00 0.00 79 1016.2
20260502103008 30 184 0.0 1.0 0.00 0.00 0.00 79 1016.1
20260502101505 30 184 0.0 2.0 0.00 0.00 0.00 80 1016.1
20260502091514 30 103 0.0 0.0 0.00 0.00 0.00 77 1016.2
20260502070014 31 103 0.0 1.0 0.00 0.00 0.00 78 1016.6
20260502064510 32 103 0.0 1.0 0.00 0.00 0.00 76 1016.7
20260502063005 32 103 0.0 0.0 0.00 0.00 0.00 76 1016.8
20260502061605 33 103 0.0 0.0 0.00 0.00 0.00 78 1016.7
20260502060011 33 103 0.0 0.0 0.00 0.00 0.00 77 1016.7
20260502054515 33 103 0.0 0.0 0.00 0.00 0.00 76 1016.8
20260502053007 34 103 0.0 1.0 0.00 0.00 0.00 74 1016.8
20260502051702 34 103 0.0 1.0 0.00 0.00 0.00 73 1016.6
20260502050013 34 103 1.0 2.0 0.00 0.00 0.00 68 1016.6
20260502044511 35 103 0.0 2.0 0.00 0.00 0.00 65 1016.7
20260502043007 37 103 0.0 0.0 0.00 0.00 0.00 65 1016.6
20260502041508 38 103 0.0 1.0 0.00 0.00 0.00 63 1016.5
20260502040008 39 103 0.0 0.0 0.00 0.00 0.00 66 1016.6
20260502034507 39 103 0.0 1.0 0.00 0.00 0.00 64 1016.6
20260502033004 39 103 0.0 0.0 0.00 0.00 0.00 65 1016.6
20260502031612 39 103 0.0 0.0 0.00 0.00 0.00 60 1016.6
20260502030011 40 103 0.0 1.0 0.00 0.00 0.00 65 1016.6
20260502024512 40 103 0.0 1.0 0.00 0.00 0.00 63 1016.6
20260502023010 40 103 0.0 2.0 0.00 0.00 0.00 57 1016.5
20260502021507 42 113 0.0 1.0 0.00 0.00 0.00 54 1016.4
20260502020008 44 113 0.0 1.0 0.00 0.00 0.00 53 1016.3
20260502014605 45 113 0.0 1.0 0.00 0.00 0.00 49 1016.3
20260502013013 47 113 0.0 1.0 0.00 0.00 0.00 46 1016.1
20260502011512 49 113 0.0 2.0 0.00 0.00 0.00 47 1016.0
20260502010011 50 113 0.0 2.0 0.00 0.00 0.00 40 1016.0
20260502004507 50 102 1.0 3.0 0.00 0.00 0.00 39 1016.0
20260502003015 51 109 0.0 2.0 0.00 0.00 0.00 38 1015.9
20260502001504 51 109 1.0 6.0 0.00 0.00 0.00 37 1015.8
20260502000105 51 111 1.0 5.0 0.00 0.00 0.00 37 1015.9